This demonstration page uses our WeatherBlox Daily Observations layout. Learn more.

38.89511, -77.03637

Hourly Observations for September 21, 2019

Temp ( °F °C ) Dew Point ( °F °C ) Humidity (%) Winds ( mph kmh ) Pressure ( in mb ) Visibility ( mi km ) Precip ( " mm )
12:52 am 00:52 Mostly Clear 65 18.3 56 13.3 73 73 SW 5 7 30.24 1024 10 16.09344 0 0
1:52 am 01:52 Mostly Clear 65 18.3 56 13.3 73 73 SW 3 6 30.24 1024 10 16.09344 0 0
2:52 am 02:52 Mostly Clear 64 17.8 56 13.3 75 75 SSW 3 6 30.24 1024 10 16.09344 0 0
3:52 am 03:52 Clear 64 17.8 57 13.9 78 78 S 3 6 30.21 1023 10 16.09344 0 0
4:52 am 04:52 Clear 63 17.2 57 13.9 81 81 WSW 3 6 30.21 1023 10 16.09344 0 0
5:52 am 05:52 Clear 61 16.1 57 13.9 87 87 SW 5 7 30.21 1023 10 16.09344 0 0
6:52 am 06:52 Mostly Clear 62 16.7 56 13.3 80 80 SW 5 7 30.24 1024 10 16.09344 0 0
7:52 am 07:52 Partly Cloudy 64 17.8 58 14.4 81 81 SW 5 7 30.24 1024 10 16.09344 0 0
8:52 am 08:52 Partly Cloudy 67 19.4 58 14.4 73 73 Calm 30.24 1024 10 16.09344 0 0
9:52 am 09:52 Mostly Sunny 70 21.1 59 15 68 68 SSE 5 7 30.24 1024 10 16.09344 0 0
10:52 am 10:52 Sunny 73 22.8 59 15 62 62 SE 6 9 30.24 1024 10 16.09344 0 0
11:52 am 11:52 Partly Cloudy 78 25.6 58 14.4 50 50 ESE 3 6 30.24 1024 10 16.09344 0 0
12:52 pm 12:52 Partly Cloudy 83 28.3 58 14.4 43 43 S 6 9 30.21 1023 10 16.09344 0 0
1:52 pm 13:52 Partly Cloudy 85 29.4 61 16.1 45 45 SSE 9 15 30.18 1022 10 16.09344 0 0
2:52 pm 14:52 Partly Cloudy 87 30.6 61 16.1 42 42 S 9 15 30.15 1021 10 16.09344 0 0
3:52 pm 15:52 Mostly Cloudy 88 31.1 59 15 38 38 SSE 8 13 30.15 1021 10 16.09344 0 0
4:52 pm 16:52 Mostly Cloudy 88 31.1 60 15.6 39 39 S 7 11 30.12 1020 10 16.09344 0 0
5:52 pm 17:52 Mostly Cloudy 86 30 63 17.2 46 46 S 7 11 30.12 1020 10 16.09344 0 0
6:52 pm 18:52 Mostly Cloudy 81 27.2 67 19.4 62 62 SE 7 11 30.15 1021 10 16.09344 0 0
7:52 pm 19:52 Partly Cloudy 81 27.2 64 17.8 57 57 SE 9 15 30.15 1021 10 16.09344 0 0
8:52 pm 20:52 Partly Cloudy 78 25.6 65 18.3 64 64 S 7 11 30.15 1021 10 16.09344 0 0
9:52 pm 21:52 Mostly Cloudy 77 25 66 18.9 69 69 S 6 9 30.18 1022 10 16.09344 0 0
10:52 pm 22:52 Mostly Cloudy 77 25 65 18.3 66 66 Calm 30.18 1022 10 16.09344 0 0
11:52 pm 23:52 Cloudy 76 24.4 66 18.9 72 72 S 5 7 30.18 1022 10 16.09344 0 0

Powered by AerisWeather